EW6058 Weather Reports


Display with metric or nautical units.
time (UTC)temp
F
wind
direction
speed
MPH
gust
MPH
rain 1hr
in
rain 24hr
in
rain mn
in
humidity
%
barometer
mb
20260502170511 57 179 1.0 2.0 0.00 0.00 0.00 53 1012.4
20260502164007 58 167 0.0 2.0 0.00 0.00 0.00 54 1012.3
20260502163506 58 149 1.0 2.0 0.00 0.00 0.00 54 1012.4
20260502163032 58 110 0.0 2.0 0.00 0.00 0.00 56 1012.4
20260502162507 58 27 1.0 2.0 0.00 0.00 0.00 56 1012.4
20260502162012 59 174 1.0 2.0 0.00 0.00 0.00 55 1012.5
20260502161524 59 219 1.0 2.0 0.00 0.00 0.00 59 1012.7
20260502161010 58 357 1.0 2.0 0.00 0.00 0.00 61 1012.8
20260502160505 58 135 0.0 2.0 0.00 0.00 0.00 60 1012.8
20260502152011 61 174 1.0 3.0 0.00 0.00 0.00 56 1013.0
20260502151524 60 172 1.0 3.0 0.00 0.00 0.00 59 1013.1
20260502151015 60 143 0.0 3.0 0.00 0.00 0.00 58 1013.1
20260502150511 59 177 1.0 2.0 0.00 0.00 0.00 57 1013.1
20260502130509 54 161 1.0 2.0 0.00 0.00 0.00 70 1013.5
20260502123512 53 166 1.0 2.0 0.00 0.00 0.00 74 1013.5
20260502123025 53 172 0.0 2.0 0.00 0.00 0.00 74 1013.5
20260502122508 53 153 1.0 2.0 0.00 0.00 0.00 74 1013.4
20260502122008 53 221 0.0 2.0 0.00 0.00 0.00 76 1013.4
20260502121520 52 172 0.0 2.0 0.00 0.00 0.00 74 1013.3
20260502121007 53 158 0.0 2.0 0.00 0.00 0.00 74 1013.4
20260502120508 53 127 0.0 2.0 0.00 0.00 0.00 74 1013.3
20260502115512 52 131 1.0 2.0 0.00 0.00 0.00 77 1013.2
20260502115010 51 176 0.0 2.0 0.00 0.00 0.00 78 1013.2
20260502114525 51 162 0.0 2.0 0.00 0.00 0.00 78 1013.2
20260502114008 50 142 1.0 2.0 0.00 0.00 0.00 80 1013.2
20260502113511 49 144 0.0 2.0 0.00 0.00 0.00 83 1013.2
20260502113028 48 174 0.0 2.0 0.00 0.00 0.00 86 1013.2
20260502112509 48 193 0.0 2.0 0.00 0.00 0.00 87 1013.3
20260502112011 47 207 0.0 2.0 0.00 0.00 0.00 90 1013.1
20260502111526 46 207 0.0 2.0 0.00 0.00 0.00 92 1013.0
20260502111008 46 207 0.0 2.0 0.00 0.00 0.00 94 1013.0
20260502110508 45 207 0.0 2.0 0.00 0.00 0.00 95 1013.1
20260502110021 44 207 0.0 2.0 0.00 0.00 0.00 96 1013.0
20260502105503 43 207 0.0 2.0 0.00 0.00 0.00 96 1013.1
20260502105003 43 207 0.0 2.0 0.00 0.00 0.00 95 1013.0
20260502104513 42 207 0.0 2.0 0.00 0.00 0.00 95 1012.9
20260502104002 41 207 0.0 2.0 0.00 0.00 0.00 95 1013.0
20260502103503 41 207 0.0 2.0 0.00 0.00 0.00 95 1013.0
20260502103007 40 207 0.0 2.0 0.00 0.00 0.00 94 1013.0
20260502102507 40 207 0.0 0.0 0.00 0.00 0.00 93 1013.0
20260502102007 40 207 0.0 0.0 0.00 0.00 0.00 93 1013.0
20260502101513 40 207 0.0 0.0 0.00 0.00 0.00 93 1013.1
20260502101007 40 207 0.0 0.0 0.00 0.00 0.00 93 1013.1
20260502100506 39 207 0.0 2.0 0.00 0.00 0.00 93 1013.1
20260502091515 40 207 0.0 1.0 0.00 0.00 0.00 90 1012.5
20260502091005 41 207 0.0 2.0 0.00 0.00 0.00 90 1012.4
20260502090504 41 207 0.0 2.0 0.00 0.00 0.00 91 1012.4
20260502071014 46 207 0.0 2.0 0.00 0.00 0.00 85 1012.6
20260502070510 46 207 0.0 2.0 0.00 0.00 0.00 84 1012.4
20260502070009 46 207 0.0 2.0 0.00 0.00 0.00 84 1012.5
20260502065505 47 207 0.0 2.0 0.00 0.00 0.00 83 1012.5
20260502065005 47 207 0.0 2.0 0.00 0.00 0.00 83 1012.5
20260502064514 47 207 0.0 2.0 0.00 0.00 0.00 83 1012.5
20260502064007 47 207 0.0 2.0 0.00 0.00 0.00 83 1012.6
20260502063507 48 207 0.0 2.0 0.00 0.00 0.00 83 1012.7
20260502063019 48 207 0.0 2.0 0.00 0.00 0.00 83 1012.7
20260502062508 48 176 0.0 2.0 0.00 0.00 0.00 83 1012.6
20260502062010 48 176 0.0 2.0 0.00 0.00 0.00 83 1012.4
20260502061523 48 179 0.0 2.0 0.00 0.00 0.00 83 1012.4
20260502061008 48 180 0.0 2.0 0.00 0.00 0.00 83 1012.4
20260502060511 48 198 0.0 2.0 0.00 0.00 0.00 83 1012.3
20260502060024 48 200 0.0 2.0 0.00 0.00 0.00 83 1012.4
20260502055508 48 181 0.0 2.0 0.00 0.00 0.00 83 1012.6
20260502055015 48 209 1.0 2.0 0.00 0.00 0.00 83 1012.7
20260502054514 48 176 0.0 2.0 0.00 0.00 0.00 83 1012.8
20260502054005 48 174 0.0 2.0 0.00 0.00 0.00 82 1012.8
20260502053504 48 174 0.0 1.0 0.00 0.00 0.00 82 1012.8
20260502053016 48 171 0.0 2.0 0.00 0.00 0.00 82 1012.7
20260502052507 48 179 1.0 2.0 0.00 0.00 0.00 82 1012.7
20260502052006 48 182 0.0 2.0 0.00 0.00 0.00 82 1012.7
20260502051533 48 183 0.0 2.0 0.00 0.00 0.00 82 1012.6
20260502051011 48 175 0.0 2.0 0.00 0.00 0.00 82 1012.6
20260502050509 48 187 0.0 2.0 0.00 0.00 0.00 82 1012.7
20260502050025 48 190 1.0 2.0 0.00 0.00 0.00 83 1012.7
20260502045508 48 195 1.0 1.0 0.00 0.00 0.00 83 1012.7
20260502045011 48 186 1.0 2.0 0.00 0.00 0.00 82 1012.7
20260502044524 48 203 0.0 2.0 0.00 0.00 0.00 82 1012.7
20260502044010 48 203 0.0 2.0 0.00 0.00 0.00 82 1012.6
20260502043508 48 203 0.0 2.0 0.00 0.00 0.00 82 1012.6
20260502043010 48 203 0.0 2.0 0.00 0.00 0.00 82 1012.7
20260502042507 48 203 0.0 2.0 0.00 0.00 0.00 82 1012.7
20260502042008 48 203 0.0 2.0 0.00 0.00 0.00 82 1012.8
20260502041518 48 193 0.0 2.0 0.00 0.00 0.00 82 1012.7
20260502041007 48 195 0.0 2.0 0.00 0.00 0.00 82 1012.8
20260502040509 48 195 0.0 2.0 0.00 0.00 0.00 83 1012.8
20260502040022 48 195 0.0 2.0 0.00 0.00 0.00 82 1012.9
20260502035508 48 180 0.0 2.0 0.00 0.00 0.00 82 1013.0
20260502035010 48 180 0.0 2.0 0.00 0.00 0.00 82 1012.9
20260502034536 48 184 0.0 2.0 0.00 0.00 0.00 82 1012.9
20260502034008 48 182 0.0 2.0 0.00 0.00 0.00 82 1012.9
20260502033514 48 188 0.0 2.0 0.00 0.00 0.00 82 1012.9
20260502033035 48 187 0.0 2.0 0.00 0.00 0.00 82 1012.9
20260502032509 48 209 0.0 2.0 0.00 0.00 0.00 82 1012.8
20260502032010 48 190 0.0 2.0 0.00 0.00 0.00 81 1012.8
20260502031516 49 190 0.0 2.0 0.00 0.00 0.00 81 1012.7
20260502031006 49 200 0.0 2.0 0.00 0.00 0.00 81 1012.7
20260502030508 49 173 0.0 2.0 0.00 0.00 0.00 81 1012.7
20260502030020 49 172 0.0 2.0 0.00 0.00 0.00 81 1012.6
20260502025508 49 153 1.0 2.0 0.00 0.00 0.00 81 1012.4
20260502025008 49 183 0.0 3.0 0.00 0.00 0.00 81 1012.3
20260502024529 49 212 0.0 3.0 0.00 0.00 0.00 82 1012.3
20260502024011 49 202 0.0 2.0 0.00 0.00 0.00 82 1012.4
20260502023514 49 203 1.0 2.0 0.00 0.00 0.00 82 1012.4
20260502023029 49 195 1.0 2.0 0.00 0.00 0.00 82 1012.4
20260502022510 49 191 0.0 2.0 0.00 0.00 0.00 82 1012.5
20260502022010 49 178 1.0 2.0 0.00 0.00 0.00 82 1012.5
20260502021526 49 195 0.0 2.0 0.00 0.00 0.00 81 1012.5
20260502021008 49 207 1.0 3.0 0.00 0.00 0.00 81 1012.5
20260502020509 49 199 1.0 3.0 0.00 0.00 0.00 81 1012.5
20260502020016 49 176 1.0 3.0 0.00 0.00 0.00 80 1012.6
20260502015508 49 178 2.0 3.0 0.00 0.00 0.00 81 1012.6
20260502015009 49 170 1.0 3.0 0.00 0.00 0.00 80 1012.6
20260502014526 49 165 1.0 3.0 0.00 0.00 0.00 80 1012.5
20260502014002 49 172 1.0 2.0 0.00 0.00 0.00 80 1012.5
20260502013502 49 180 1.0 2.0 0.00 0.00 0.00 79 1012.5
20260502013004 49 155 0.0 2.0 0.00 0.00 0.00 80 1012.5
20260502012502 49 154 0.0 2.0 0.00 0.00 0.00 80 1012.4
20260502012009 49 186 0.0 2.0 0.00 0.00 0.00 80 1012.4
20260502011508 49 188 0.0 2.0 0.00 0.00 0.00 79 1012.4
20260502011006 49 200 1.0 2.0 0.00 0.00 0.00 79 1012.3
20260502010503 49 183 1.0 2.0 0.00 0.00 0.00 79 1012.2
20260502010014 49 209 0.0 2.0 0.00 0.00 0.00 79 1012.1
20260502005507 49 190 0.0 2.0 0.00 0.00 0.00 78 1012.0
20260502005005 49 193 1.0 2.0 0.00 0.00 0.00 78 1012.0
20260502004518 49 180 0.0 2.0 0.00 0.00 0.00 77 1011.8
20260502004008 49 186 0.0 2.0 0.00 0.00 0.00 77 1011.6
20260502003506 49 198 1.0 2.0 0.00 0.00 0.00 76 1011.7
20260502003024 49 169 1.0 2.0 0.00 0.00 0.00 76 1011.6
20260502002504 49 162 1.0 2.0 0.00 0.00 0.00 76 1011.5
20260502002008 49 187 0.0 2.0 0.00 0.00 0.00 75 1011.5
20260502001508 50 164 0.0 2.0 0.00 0.00 0.00 75 1011.4
20260502001003 50 160 0.0 3.0 0.00 0.00 0.00 74 1011.3
20260502000503 50 174 0.0 3.0 0.00 0.00 0.00 73 1011.1
20260502000009 50 210 1.0 3.0 0.00 0.00 0.00 73 1011.1
20260501235506 50 172 1.0 3.0 0.00 0.00 0.00 73 1011.0
20260501235005 50 170 1.0 3.0 0.00 0.00 0.00 74 1010.9
20260501234519 50 190 0.0 5.0 0.00 0.00 0.00 73 1010.8
20260501234007 50 180 1.0 5.0 0.00 0.00 0.00 72 1010.8
20260501233511 51 243 1.0 5.0 0.00 0.00 0.00 72 1010.8
20260501233020 51 189 0.0 2.0 0.00 0.00 0.00 71 1010.7
20260501232507 51 192 1.0 2.0 0.00 0.00 0.00 70 1010.7
20260501232009 51 158 1.0 3.0 0.00 0.00 0.00 70 1010.5
20260501231534 51 172 1.0 3.0 0.00 0.00 0.00 70 1010.4
20260501231004 52 167 1.0 4.0 0.00 0.00 0.00 69 1010.3
20260501230503 52 169 2.0 4.0 0.00 0.00 0.00 68 1010.2
20260501230005 52 194 1.0 4.0 0.00 0.00 0.00 68 1010.2
20260501225504 52 169 2.0 3.0 0.00 0.00 0.00 68 1010.2
20260501225004 53 174 1.0 3.0 0.00 0.00 0.00 67 1010.1
20260501224513 53 159 1.0 3.0 0.00 0.00 0.00 66 1010.0
20260501224007 53 150 1.0 3.0 0.00 0.00 0.00 66 1010.0
20260501223508 53 177 1.0 6.0 0.00 0.00 0.00 66 1010.0
20260501223015 53 176 2.0 6.0 0.00 0.00 0.00 65 1010.0
20260501222509 54 158 2.0 4.0 0.00 0.00 0.00 65 1009.9
20260501222008 54 200 1.0 6.0 0.00 0.00 0.00 64 1009.8
20260501221522 54 184 1.0 6.0 0.00 0.00 0.00 63 1009.8
20260501221012 54 166 2.0 6.0 0.00 0.00 0.00 62 1009.8
20260501220509 55 169 2.0 5.0 0.00 0.00 0.00 62 1009.7
20260501220026 55 177 1.0 3.0 0.00 0.00 0.00 63 1009.7
20260501215504 55 169 1.0 7.0 0.00 0.00 0.00 63 1009.8
20260501215003 55 212 1.0 7.0 0.00 0.00 0.00 61 1009.8
20260501214522 55 161 1.0 4.0 0.00 0.00 0.00 60 1009.8
20260501214006 55 200 2.0 4.0 0.00 0.00 0.00 60 1009.7
20260501213505 55 169 2.0 5.0 0.00 0.00 0.00 60 1009.7
20260501213015 55 162 3.0 5.0 0.00 0.00 0.00 60 1009.7
20260501212507 55 160 3.0 8.0 0.00 0.00 0.00 58 1009.5
20260501212007 55 169 1.0 8.0 0.00 0.00 0.00 60 1009.6
20260501211520 55 207 3.0 8.0 0.00 0.00 0.00 61 1009.7
20260501211008 55 162 2.0 6.0 0.00 0.00 0.00 62 1009.6
20260501210508 55 191 2.0 7.0 0.00 0.00 0.00 61 1009.6
20260501210024 55 160 3.0 9.0 0.00 0.00 0.00 61 1009.6
20260501205508 55 172 2.0 6.0 0.00 0.00 0.00 62 1009.6
20260501205009 55 170 3.0 6.0 0.00 0.00 0.00 62 1009.6
20260501204527 55 212 3.0 6.0 0.00 0.00 0.00 62 1009.6
20260501204004 55 172 2.0 6.0 0.00 0.00 0.00 63 1009.5
20260501203504 55 210 3.0 6.0 0.00 0.00 0.00 63 1009.5
20260501203010 55 205 2.0 6.0 0.00 0.00 0.00 64 1009.6
20260501202506 55 172 3.0 6.0 0.00 0.00 0.00 63 1009.6
20260501202007 55 188 2.0 5.0 0.00 0.00 0.00 64 1009.6
20260501201518 55 188 2.0 6.0 0.00 0.00 0.00 65 1009.6
20260501201007 55 162 3.0 7.0 0.00 0.00 0.00 63 1009.5
20260501200509 55 198 2.0 7.0 0.00 0.00 0.00 64 1009.6
20260501200022 55 204 2.0 5.0 0.00 0.00 0.00 62 1009.5
20260501195512 55 171 2.0 9.0 0.00 0.00 0.00 62 1009.5
20260501195007 55 201 4.0 9.0 0.00 0.00 0.00 61 1009.5
20260501194526 55 165 2.0 7.0 0.00 0.00 0.00 63 1009.5
20260501194009 55 157 2.0 7.0 0.00 0.00 0.00 64 1009.6
20260501193506 55 200 2.0 7.0 0.00 0.00 0.00 65 1009.6
20260501193031 55 169 3.0 7.0 0.00 0.00 0.00 64 1009.7
20260501192505 55 191 2.0 7.0 0.00 0.00 0.00 63 1009.6
20260501192004 56 174 2.0 5.0 0.00 0.00 0.00 61 1009.5
20260501191516 56 162 2.0 7.0 0.00 0.00 0.00 62 1009.5
20260501191009 55 187 2.0 7.0 0.00 0.00 0.00 61 1009.5
20260501190510 56 172 2.0 6.0 0.00 0.00 0.00 61 1009.5
20260501190020 56 164 2.0 5.0 0.00 0.00 0.00 59 1009.5
20260501185509 57 148 3.0 5.0 0.00 0.00 0.00 60 1009.6
20260501185011 57 188 1.0 4.0 0.00 0.00 0.00 58 1009.6
20260501184524 57 169 1.0 5.0 0.00 0.00 0.00 58 1009.6
20260501184012 57 203 2.0 5.0 0.00 0.00 0.00 61 1009.5
20260501183512 58 146 3.0 5.0 0.00 0.00 0.00 56 1009.6
20260501183028 58 150 3.0 5.0 0.00 0.00 0.00 54 1009.5
20260501182509 58 187 2.0 4.0 0.00 0.00 0.00 54 1009.5
20260501182012 59 135 2.0 5.0 0.00 0.00 0.00 53 1009.6
20260501181532 59 146 2.0 5.0 0.00 0.00 0.00 54 1009.6
20260501181003 59 158 1.0 4.0 0.00 0.00 0.00 56 1009.7
20260501180508 59 112 2.0 6.0 0.00 0.00 0.00 57 1009.8
20260501180020 59 219 2.0 6.0 0.00 0.00 0.00 54 1009.9